Location: Владивосток
(43.1151°N, 131.8856°E)
Time: 23:37:16
(UTC+10:00)

FENGYUN 1C DEB - Visible Passes

Search period start: 12 July 2024 00:00
Search period end: 22 July 2024 00:00
Orbit: 764 x 785 km, 98.8° (Epoch: 11 July)

Date Brightness Start Highest point End Pass type
(mag) Time Alt. Az. Time Alt. Az. Time Alt. Az.
12 Jul ? 00:29:18 33° E 00:30:27 38° ENE 00:35:08 10° N visible
12 Jul ? 02:09:42 27° W 02:09:42 27° W 02:13:59 10° NW visible
12 Jul ? 23:55:01 16° E 23:56:53 20° ENE 00:00:30 10° NNE visible
13 Jul ? 01:35:25 56° WSW 01:35:36 56° W 01:40:37 10° NNW visible
13 Jul ? 23:23:00 10° ENE 23:23:29 10° NE 23:23:58 10° NE visible
14 Jul ? 01:01:08 65° ESE 01:01:41 72° ENE 01:06:46 10° N visible
14 Jul ? 02:41:32 14° W 02:41:32 14° W 02:44:00 10° WNW visible
15 Jul ? 00:26:49 32° E 00:27:55 35° ENE 00:32:33 10° N visible
15 Jul ? 02:07:14 29° W 02:07:14 29° W 02:11:30 10° NW visible
15 Jul ? 23:52:30 16° E 23:54:19 19° ENE 23:57:48 10° NNE visible
16 Jul ? 01:32:54 60° WSW 01:32:59 60° W 01:38:02 10° NNW visible
17 Jul ? 00:58:34 63° ESE 00:59:01 67° ENE 01:04:07 10° N visible
17 Jul ? 02:38:58 15° W 02:38:58 15° W 02:41:34 10° NW visible
18 Jul ? 00:24:13 31° E 00:25:14 33° ENE 00:29:47 10° N visible
18 Jul ? 02:04:37 31° W 02:04:37 31° W 02:08:52 10° NW visible
18 Jul ? 23:49:50 15° E 23:51:36 18° ENE 23:54:55 10° NNE visible
19 Jul ? 01:30:14 64° W 01:30:14 64° W 01:35:18 10° NNW visible
20 Jul ? 00:55:51 61° E 00:56:13 63° ENE 01:01:17 10° N visible
20 Jul ? 02:36:15 16° W 02:36:15 16° W 02:38:56 10° NW visible
21 Jul ? 00:21:27 29° E 00:22:24 31° ENE 00:26:52 10° N visible
21 Jul ? 02:01:51 33° W 02:01:51 33° W 02:06:04 10° NNW visible
21 Jul ? 23:47:02 14° E 23:48:44 17° ENE 23:51:53 10° NNE visible
